EN

Hourly Weather Al Kharj

Today, 21 January, Thursday

Time Temperature Precipitation Wind Pressure Humidity
00:00 +19°C° 0 mm 4 mps 725 mmHg 34%
01:00 +18°C° 0 mm 4 mps 725 mmHg 35%
02:00 +16°C° 0 mm 5 mps 725 mmHg 36%
03:00 +15°C° 0 mm 7 mps 726 mmHg 37%
04:00 +14°C° 0 mm 6 mps 726 mmHg 38%
05:00 +13°C° 0 mm 5 mps 727 mmHg 39%
06:00 +12°C° 0 mm 5 mps 728 mmHg 41%
07:00 +13°C° 0 mm 6 mps 728 mmHg 40%
08:00 +14°C° 0 mm 7 mps 729 mmHg 38%
09:00 +15°C° 0 mm 8 mps 729 mmHg 36%
10:00 +16°C° 0 mm 8 mps 729 mmHg 32%
11:00 +17°C° 0 mm 8 mps 730 mmHg 29%
12:00 +20°C° 0 mm 8 mps 730 mmHg 25%
13:00 +20°C° 0 mm 8 mps 729 mmHg 24%
14:00 +20°C° 0 mm 8 mps 729 mmHg 22%
15:00 +20°C° 0 mm 8 mps 728 mmHg 21%
16:00 +17°C° 0 mm 7 mps 728 mmHg 23%
17:00 +15°C° 0 mm 6 mps 729 mmHg 26%
18:00 +14°C° 0 mm 5 mps 729 mmHg 28%
19:00 +13°C° 0 mm 5 mps 729 mmHg 29%
20:00 +12°C° 0 mm 4 mps 729 mmHg 31%
21:00 +11°C° 0 mm 4 mps 730 mmHg 32%
22:00 +10°C° 0 mm 4 mps 730 mmHg 35%
23:00 +8°C° 0 mm 4 mps 730 mmHg 38%

Tomorrow, 22 January, Friday

Time Temperature Precipitation Wind Pressure Humidity
00:00 +8°C° 0 mm 4 mps 730 mmHg 40%
01:00 +7°C° 0 mm 4 mps 730 mmHg 42%
02:00 +7°C° 0 mm 4 mps 730 mmHg 44%
03:00 +6°C° 0 mm 4 mps 729 mmHg 45%
04:00 +6°C° 0 mm 4 mps 730 mmHg 47%
05:00 +5°C° 0 mm 4 mps 730 mmHg 48%
06:00 +5°C° 0 mm 4 mps 730 mmHg 50%
07:00 +6°C° 0 mm 4 mps 730 mmHg 43%
08:00 +8°C° 0 mm 5 mps 730 mmHg 37%
09:00 +9°C° 0 mm 6 mps 731 mmHg 30%
10:00 +11°C° 0 mm 6 mps 730 mmHg 24%
11:00 +14°C° 0 mm 6 mps 730 mmHg 18%
12:00 +16°C° 0 mm 6 mps 730 mmHg 13%
13:00 +17°C° 0 mm 5 mps 729 mmHg 11%
14:00 +19°C° 0 mm 5 mps 728 mmHg 10%
15:00 +20°C° 0 mm 5 mps 728 mmHg 9%
16:00 +17°C° 0 mm 5 mps 728 mmHg 10%
17:00 +15°C° 0 mm 4 mps 728 mmHg 12%
18:00 +13°C° 0 mm 4 mps 728 mmHg 13%
19:00 +12°C° 0 mm 4 mps 728 mmHg 14%
20:00 +11°C° 0 mm 4 mps 729 mmHg 15%
21:00 +10°C° 0 mm 4 mps 729 mmHg 16%
22:00 +9°C° 0 mm 3 mps 729 mmHg 17%
23:00 +8°C° 0 mm 3 mps 729 mmHg 18%

Day after tomorrow, 23 January, Saturday

Time Temperature Precipitation Wind Pressure Humidity
00:00 +7°C° 0 mm 2 mps 728 mmHg 19%
01:00 +7°C° 0 mm 2 mps 728 mmHg 20%
02:00 +7°C° 0 mm 2 mps 728 mmHg 21%
03:00 +6°C° 0 mm 2 mps 728 mmHg 22%
04:00 +6°C° 0 mm 2 mps 728 mmHg 22%
05:00 +6°C° 0 mm 2 mps 728 mmHg 23%
06:00 +6°C° 0 mm 2 mps 729 mmHg 23%
07:00 +7°C° 0 mm 3 mps 729 mmHg 21%
08:00 +9°C° 0 mm 3 mps 729 mmHg 19%
09:00 +11°C° 0 mm 3 mps 730 mmHg 16%
10:00 +13°C° 0 mm 3 mps 729 mmHg 14%
11:00 +16°C° 0 mm 3 mps 729 mmHg 11%
12:00 +18°C° 0 mm 2 mps 728 mmHg 9%
13:00 +19°C° 0 mm 3 mps 728 mmHg 8%
14:00 +20°C° 0 mm 3 mps 727 mmHg 7%
15:00 +21°C° 0 mm 3 mps 727 mmHg 6%
16:00 +19°C° 0 mm 3 mps 727 mmHg 7%
17:00 +17°C° 0 mm 3 mps 727 mmHg 8%
18:00 +14°C° 0 mm 3 mps 727 mmHg 9%
19:00 +13°C° 0 mm 3 mps 727 mmHg 11%
20:00 +12°C° 0 mm 3 mps 727 mmHg 12%
21:00 +11°C° 0 mm 3 mps 728 mmHg 13%
22:00 +10°C° 0 mm 3 mps 727 mmHg 15%
23:00 +9°C° 0 mm 2 mps 727 mmHg 17%

24 January, Sunday

Time Temperature Precipitation Wind Pressure Humidity
00:00 +8°C° 0 mm 2 mps 727 mmHg 19%
01:00 +8°C° 0 mm 1 mps 727 mmHg 21%
02:00 +8°C° 0 mm 1 mps 727 mmHg 22%
03:00 +7°C° 0 mm 1 mps 726 mmHg 24%
04:00 +6°C° 0 mm 0 mps 727 mmHg 25%
05:00 +5°C° 0 mm 0 mps 727 mmHg 26%
06:00 +5°C° 0 mm 0 mps 727 mmHg 27%
07:00 +8°C° 0 mm 0 mps 727 mmHg 23%
08:00 +11°C° 0 mm 1 mps 728 mmHg 20%
09:00 +14°C° 0 mm 1 mps 729 mmHg 16%
10:00 +16°C° 0 mm 1 mps 728 mmHg 14%
11:00 +19°C° 0 mm 1 mps 728 mmHg 12%
12:00 +20°C° 0 mm 1 mps 728 mmHg 11%
13:00 +21°C° 0 mm 1 mps 727 mmHg 10%
14:00 +22°C° 0 mm 1 mps 727 mmHg 9%
15:00 +23°C° 0 mm 1 mps 726 mmHg 9%
16:00 +20°C° 0 mm 2 mps 726 mmHg 10%
17:00 +18°C° 0 mm 2 mps 726 mmHg 12%
18:00 +16°C° 0 mm 2 mps 726 mmHg 13%
19:00 +14°C° 0 mm 3 mps 726 mmHg 14%
20:00 +14°C° 0 mm 3 mps 727 mmHg 14%
21:00 +13°C° 0 mm 3 mps 727 mmHg 15%
22:00 +12°C° 0 mm 3 mps 727 mmHg 16%
23:00 +12°C° 0 mm 2 mps 727 mmHg 17%

25 January, Monday

Time Temperature Precipitation Wind Pressure Humidity
00:00 +10°C° 0 mm 2 mps 727 mmHg 17%
01:00 +10°C° 0 mm 1 mps 726 mmHg 18%
02:00 +9°C° 0 mm 1 mps 726 mmHg 19%
03:00 +8°C° 0 mm 1 mps 726 mmHg 20%
04:00 +7°C° 0 mm 0 mps 726 mmHg 20%
05:00 +7°C° 0 mm 0 mps 726 mmHg 21%
06:00 +7°C° 0 mm 0 mps 726 mmHg 21%
07:00 +10°C° 0 mm 0 mps 727 mmHg 18%
08:00 +13°C° 0 mm 0 mps 728 mmHg 15%
09:00 +15°C° 0 mm 0 mps 728 mmHg 13%
10:00 +17°C° 0 mm 0 mps 728 mmHg 12%
11:00 +21°C° 0 mm 1 mps 728 mmHg 12%
12:00 +23°C° 0 mm 1 mps 727 mmHg 12%
13:00 +24°C° 0 mm 1 mps 727 mmHg 11%
14:00 +25°C° 0 mm 1 mps 727 mmHg 11%
15:00 +26°C° 0 mm 1 mps 726 mmHg 10%
16:00 +24°C° 0 mm 2 mps 726 mmHg 12%
17:00 +21°C° 0 mm 2 mps 726 mmHg 13%
18:00 +19°C° 0 mm 2 mps 726 mmHg 15%
19:00 +18°C° 0 mm 3 mps 726 mmHg 15%
20:00 +17°C° 0 mm 3 mps 727 mmHg 15%
21:00 +16°C° 0 mm 3 mps 727 mmHg 15%
22:00 +14°C° 0 mm 3 mps 727 mmHg 15%
23:00 +13°C° 0 mm 3 mps 727 mmHg 16%

26 January, Tuesday

Time Temperature Precipitation Wind Pressure Humidity
00:00 +13°C° 0 mm 2 mps 727 mmHg 17%
01:00 +13°C° 0 mm 2 mps 726 mmHg 17%
02:00 +12°C° 0 mm 2 mps 726 mmHg 18%
03:00 +10°C° 0 mm 2 mps 726 mmHg 19%
04:00 +10°C° 0 mm 1 mps 726 mmHg 20%
05:00 +10°C° 0 mm 1 mps 726 mmHg 21%
06:00 +9°C° 0 mm 1 mps 726 mmHg 22%
07:00 +12°C° 0 mm 1 mps 727 mmHg 18%
08:00 +15°C° 0 mm 1 mps 728 mmHg 15%
09:00 +19°C° 0 mm 2 mps 728 mmHg 11%
10:00 +21°C° 0 mm 2 mps 728 mmHg 11%
11:00 +24°C° 0 mm 2 mps 728 mmHg 10%
12:00 +26°C° 0 mm 2 mps 727 mmHg 10%
13:00 +27°C° 0 mm 3 mps 727 mmHg 10%
14:00 +28°C° 0 mm 3 mps 726 mmHg 10%
15:00 +28°C° 0 mm 3 mps 726 mmHg 11%
16:00 +26°C° 0 mm 3 mps 726 mmHg 13%
17:00 +24°C° 0 mm 3 mps 726 mmHg 16%
18:00 +21°C° 0 mm 3 mps 725 mmHg 18%
19:00 +20°C° 0 mm 3 mps 726 mmHg 20%
20:00 +19°C° 0 mm 3 mps 726 mmHg 22%
21:00 +18°C° 0 mm 4 mps 727 mmHg 24%
22:00 +17°C° 0 mm 3 mps 726 mmHg 26%
23:00 +16°C° 0 mm 3 mps 726 mmHg 28%
Show more